Location: Dilsberg
(49.3983°N, 8.8354°E)
Time: 05:12:00
(UTC+00:00)

Cosmos 1980 Rocket - Pass Details

Date: 19 May 2025
Orbit: 829 x 847 km, 71.0° (Epoch: 14 June)

Event Time Altitude Azimuth Distance (km) Brightness Sun altitude
Rises 22:29:37 0° 322° (NW) 3,383 6.5 -19.7°
Reaches altitude 10° 22:32:28 10° 310° (NW) 2,445 5.3 -19.8°
Maximum altitude 22:36:52 24° 257° (WSW) 1,646 3.7 -19.9°
Enters shadow 22:39:04 19° 225° (SW) 1,876 3.7 -20.0°
